Location: Albany
(35.0000°S, 118.0000°E)
Time: 20:19:30
(UTC-04:00)

JAS-1B - Pass Details

Date: 20 February 2018
Orbit: 912 x 1743 km, 99.1° (Epoch: 24 June)

Event Time Altitude Azimuth Distance (km) Brightness Sun altitude
Rises 11:09:48 0° 169° (S) 4,469 11.2 -44.1°
Reaches altitude 10° 11:12:25 10° 171° (S) 3,588 10.5 -44.2°
Enters shadow 11:18:44 55° 186° (S) 1,853 8.4 -44.2°
